This is the latest recevied weather packets stored in our database for station/object WA1NHP. If no packets are shown the sender has not sent any weather packets the latest 10 day(s).
| Time | Temp. | Humidity | Pressure | Rain* | Wind** | Luminosity | Snow |
|---|---|---|---|---|---|---|---|
| 1777502043 | 13.89° C | 59% | 1023.9 hPa | 0 mm | - | 65 W/m² | - |
| 1777501444 | 13.89° C | 59% | 1023.9 hPa | 0 mm | - | 69 W/m² | - |
| 1777500844 | 14.44° C | 59% | 1023.9 hPa | 0 mm | - | 90 W/m² | - |
| 1777500244 | 14.44° C | 58% | 1023.9 hPa | 0 mm | - | 111 W/m² | - |
| 1777499643 | 14.44° C | 58% | 1023.9 hPa | 0 mm | - | 104 W/m² | - |
| 1777499044 | 15° C | 58% | 1023.9 hPa | 0 mm | - | 105 W/m² | - |
| 1777498444 | 15° C | 57% | 1023.9 hPa | 0 mm | - | 162 W/m² | - |
| 1777497844 | 15° C | 57% | 1023.9 hPa | 0 mm | - | 130 W/m² | - |
| 1777497243 | 15.56° C | 55% | 1023.9 hPa | 0 mm | - | 195 W/m² | - |
| 1777496644 | 15° C | 57% | 1023.9 hPa | 0 mm | - | 186 W/m² | - |
| 1777496044 | 15.56° C | 57% | 1023.9 hPa | 0 mm | - | 197 W/m² | - |
| 1777495444 | 15.56° C | 56% | 1023.9 hPa | 0 mm | - | 216 W/m² | - |
| 1777494844 | 15.56° C | 56% | 1023.9 hPa | 0 mm | - | 264 W/m² | - |
| 1777494244 | 15.56° C | 57% | 1023.9 hPa | 0 mm | - | 264 W/m² | - |
| 1777493643 | 15.56° C | 58% | 1023.9 hPa | 0 mm | - | 246 W/m² | - |
| 1777493044 | 16.11° C | 60% | 1023.9 hPa | 0 mm | - | 283 W/m² | - |
| 1777492444 | 16.67° C | 55% | 1023.9 hPa | 0 mm | - | 515 W/m² | - |
| 1777491844 | 16.67° C | 56% | 1023.9 hPa | 0 mm | - | 350 W/m² | - |
| 1777491244 | 16.67° C | 58% | 1023.9 hPa | 0 mm | - | 485 W/m² | - |
| 1777490644 | 16.11° C | 58% | 1023.9 hPa | 0 mm | - | 508 W/m² | - |
| 1777490044 | 16.67° C | 57% | 1023.9 hPa | 0 mm | - | 411 W/m² | - |
| 1777489444 | 16.67° C | 56% | 1023.9 hPa | 0 mm | - | 450 W/m² | - |
| 1777488843 | 17.22° C | 55% | 1023.9 hPa | 0 mm | - | 497 W/m² | - |
| 1777488244 | 16.67° C | 56% | 1023.9 hPa | 0 mm | - | 589 W/m² | - |
| 1777487644 | 16.11° C | 56% | 1023.9 hPa | 0 mm | - | 450 W/m² | - |
* Rain latest hour (hover to see other rain measurements)
** Current wind speed in m/s (hover to see current wind gust speed)